• en Suisse
  • Liste des pays
  • À 7 jours
  • Température de l'eau
  • Carte satellitaire
  • Carte météo
  • Widgets météo
  • user-avatar
    Se connecter

    Météo par heure à Truro

    Ce jour, 11 Décembre, Lundi

    Heure Température Précipitation Vent Pression Humidité
    00:00 +4°C° 0 mm 6 m/s 730 mmHg 83%
    01:00 +2°C° 0,2 mm 8 m/s 730 mmHg 85%
    02:00 +1°C° 0,2 mm 11 m/s 730 mmHg 87%
    03:00 -1°C° 0,2 mm 13 m/s 730 mmHg 89%
    04:00 -1°C° 0,3 mm 14 m/s 731 mmHg 88%
    05:00 -1°C° 0,3 mm 14 m/s 732 mmHg 86%
    06:00 -1°C° 0,3 mm 15 m/s 732 mmHg 85%
    07:00 -1°C° 0,2 mm 15 m/s 734 mmHg 85%
    08:00 -1°C° 0,2 mm 15 m/s 735 mmHg 85%
    09:00 -1°C° 0,2 mm 15 m/s 736 mmHg 85%
    10:00 0°C° 0 mm 14 m/s 737 mmHg 81%
    11:00 0°C° 0 mm 13 m/s 739 mmHg 77%
    12:00 0°C° 0 mm 13 m/s 740 mmHg 74%
    13:00 0°C° 0 mm 12 m/s 741 mmHg 72%
    14:00 +1°C° 0 mm 11 m/s 742 mmHg 70%
    15:00 +1°C° 0 mm 10 m/s 742 mmHg 68%
    16:00 +1°C° 0,1 mm 9 m/s 743 mmHg 72%
    17:00 0°C° 0,1 mm 9 m/s 744 mmHg 76%
    18:00 0°C° 0,1 mm 8 m/s 745 mmHg 80%
    19:00 0°C° 0,3 mm 9 m/s 746 mmHg 80%
    20:00 +1°C° 0,3 mm 9 m/s 747 mmHg 81%
    21:00 +1°C° 0,3 mm 10 m/s 748 mmHg 81%
    22:00 +1°C° 0,2 mm 9 m/s 748 mmHg 83%
    23:00 +1°C° 0,2 mm 9 m/s 749 mmHg 84%

    Demain, 12 Décembre, Mardi

    Heure Température Précipitation Vent Pression Humidité
    00:00 +1°C° 0,2 mm 8 m/s 750 mmHg 85%
    01:00 +1°C° 0,1 mm 8 m/s 751 mmHg 86%
    02:00 +1°C° 0,1 mm 8 m/s 751 mmHg 87%
    03:00 +2°C° 0,1 mm 7 m/s 752 mmHg 87%
    04:00 +2°C° 0 mm 7 m/s 752 mmHg 87%
    05:00 +2°C° 0 mm 6 m/s 753 mmHg 87%
    06:00 +2°C° 0 mm 6 m/s 753 mmHg 87%
    07:00 +2°C° 0 mm 5 m/s 754 mmHg 86%
    08:00 +2°C° 0 mm 5 m/s 754 mmHg 85%
    09:00 +3°C° 0 mm 5 m/s 755 mmHg 83%
    10:00 +4°C° 0 mm 6 m/s 755 mmHg 81%
    11:00 +4°C° 0 mm 6 m/s 755 mmHg 79%
    12:00 +5°C° 0 mm 6 m/s 755 mmHg 77%
    13:00 +5°C° 0,1 mm 7 m/s 755 mmHg 78%
    14:00 +5°C° 0,1 mm 8 m/s 754 mmHg 79%
    15:00 +5°C° 0,1 mm 10 m/s 754 mmHg 80%
    16:00 +5°C° 0,3 mm 10 m/s 753 mmHg 82%
    17:00 +6°C° 0,3 mm 11 m/s 753 mmHg 85%
    18:00 +6°C° 0,3 mm 11 m/s 753 mmHg 87%
    19:00 +6°C° 0,3 mm 11 m/s 752 mmHg 89%
    20:00 +7°C° 0,3 mm 10 m/s 752 mmHg 91%
    21:00 +8°C° 0,3 mm 10 m/s 752 mmHg 93%
    22:00 +8°C° 0 mm 10 m/s 752 mmHg 91%
    23:00 +8°C° 0 mm 9 m/s 752 mmHg 89%

    Après-demain, 13 Décembre, Mercredi

    Heure Température Précipitation Vent Pression Humidité
    00:00 +7°C° 0 mm 9 m/s 752 mmHg 87%
    01:00 +7°C° 0 mm 9 m/s 752 mmHg 85%
    02:00 +7°C° 0 mm 9 m/s 752 mmHg 84%
    03:00 +6°C° 0 mm 9 m/s 752 mmHg 83%
    04:00 +6°C° 0,1 mm 9 m/s 752 mmHg 84%
    05:00 +6°C° 0,1 mm 9 m/s 752 mmHg 85%
    06:00 +6°C° 0,1 mm 9 m/s 752 mmHg 85%
    07:00 +7°C° 0,1 mm 9 m/s 751 mmHg 85%
    08:00 +7°C° 0,1 mm 10 m/s 751 mmHg 85%
    09:00 +7°C° 0,1 mm 10 m/s 751 mmHg 85%
    10:00 +7°C° 0,4 mm 10 m/s 751 mmHg 85%
    11:00 +8°C° 0,4 mm 11 m/s 750 mmHg 86%
    12:00 +8°C° 0,4 mm 11 m/s 750 mmHg 86%
    13:00 +7°C° 0,1 mm 11 m/s 750 mmHg 83%
    14:00 +7°C° 0,1 mm 11 m/s 750 mmHg 81%
    15:00 +7°C° 0,1 mm 12 m/s 750 mmHg 79%
    16:00 +5°C° 0,1 mm 12 m/s 750 mmHg 77%
    17:00 +5°C° 0,1 mm 12 m/s 750 mmHg 75%
    18:00 +4°C° 0,1 mm 12 m/s 750 mmHg 73%
    19:00 +4°C° 0,1 mm 13 m/s 750 mmHg 73%
    20:00 +5°C° 0,1 mm 14 m/s 750 mmHg 72%
    21:00 +5°C° 0,1 mm 15 m/s 749 mmHg 71%
    22:00 +5°C° 0,6 mm 15 m/s 749 mmHg 74%
    23:00 +5°C° 0,6 mm 15 m/s 749 mmHg 78%

    14 Décembre, Jeudi

    Heure Température Précipitation Vent Pression Humidité
    00:00 +5°C° 0,6 mm 15 m/s 748 mmHg 81%
    01:00 +4°C° 0,9 mm 15 m/s 748 mmHg 77%
    02:00 +4°C° 0,9 mm 15 m/s 747 mmHg 72%
    03:00 +4°C° 0,9 mm 15 m/s 747 mmHg 68%
    04:00 +4°C° 0,6 mm 15 m/s 746 mmHg 73%
    05:00 +2°C° 0,6 mm 15 m/s 746 mmHg 77%
    06:00 +2°C° 0,6 mm 16 m/s 746 mmHg 81%
    07:00 +1°C° 0,6 mm 15 m/s 746 mmHg 76%
    08:00 +1°C° 0,6 mm 15 m/s 746 mmHg 71%
    09:00 +1°C° 0,6 mm 14 m/s 746 mmHg 67%
    10:00 +1°C° 0,3 mm 14 m/s 746 mmHg 67%
    11:00 +3°C° 0,3 mm 14 m/s 746 mmHg 68%
    12:00 +3°C° 0,3 mm 14 m/s 746 mmHg 68%
    13:00 +3°C° 0,3 mm 13 m/s 746 mmHg 69%
    14:00 +3°C° 0,3 mm 13 m/s 746 mmHg 71%
    15:00 +1°C° 0,3 mm 13 m/s 746 mmHg 72%
    16:00 +1°C° 0,4 mm 13 m/s 745 mmHg 72%
    17:00 +1°C° 0,4 mm 13 m/s 745 mmHg 72%
    18:00 +1°C° 0,4 mm 13 m/s 745 mmHg 72%
    19:00 +3°C° 0,3 mm 14 m/s 745 mmHg 73%
    20:00 +3°C° 0,3 mm 14 m/s 745 mmHg 74%
    21:00 +3°C° 0,3 mm 14 m/s 745 mmHg 75%
    22:00 +3°C° 0,5 mm 14 m/s 744 mmHg 75%
    23:00 +3°C° 0,5 mm 13 m/s 744 mmHg 75%

    15 Décembre, Vendredi

    Heure Température Précipitation Vent Pression Humidité
    00:00 +4°C° 0,5 mm 13 m/s 744 mmHg 75%
    01:00 +3°C° 0,2 mm 13 m/s 744 mmHg 73%
    02:00 +3°C° 0,2 mm 13 m/s 745 mmHg 72%
    03:00 +1°C° 0,2 mm 13 m/s 745 mmHg 71%
    04:00 +1°C° 0 mm 13 m/s 746 mmHg 72%
    05:00 +1°C° 0 mm 13 m/s 747 mmHg 72%
    06:00 +3°C° 0 mm 13 m/s 747 mmHg 73%
    07:00 +2°C° 0 mm 12 m/s 748 mmHg 74%
    08:00 +2°C° 0 mm 12 m/s 749 mmHg 75%
    09:00 +2°C° 0 mm 11 m/s 750 mmHg 76%
    10:00 +3°C° 0,1 mm 11 m/s 751 mmHg 75%
    11:00 +4°C° 0,1 mm 11 m/s 751 mmHg 74%
    12:00 +4°C° 0,1 mm 11 m/s 752 mmHg 73%
    13:00 +4°C° 0,1 mm 11 m/s 752 mmHg 74%
    14:00 +4°C° 0,1 mm 11 m/s 752 mmHg 76%
    15:00 +4°C° 0,1 mm 12 m/s 753 mmHg 78%
    16:00 +3°C° 0,1 mm 11 m/s 753 mmHg 79%
    17:00 +3°C° 0,1 mm 11 m/s 754 mmHg 80%
    18:00 +2°C° 0,1 mm 10 m/s 755 mmHg 81%
    19:00 +2°C° 0,1 mm 9 m/s 756 mmHg 82%
    20:00 +2°C° 0,1 mm 9 m/s 756 mmHg 82%
    21:00 +2°C° 0,1 mm 8 m/s 757 mmHg 83%
    22:00 +1°C° 0 mm 8 m/s 757 mmHg 83%
    23:00 +2°C° 0 mm 7 m/s 758 mmHg 83%

    16 Décembre, Samedi

    Heure Température Précipitation Vent Pression Humidité
    00:00 +2°C° 0 mm 7 m/s 758 mmHg 83%
    01:00 +2°C° 0 mm 7 m/s 758 mmHg 82%
    02:00 +2°C° 0 mm 7 m/s 758 mmHg 82%
    03:00 +2°C° 0 mm 6 m/s 758 mmHg 82%
    04:00 +2°C° 0,1 mm 6 m/s 758 mmHg 82%
    05:00 +2°C° 0,1 mm 6 m/s 758 mmHg 82%
    06:00 +3°C° 0,1 mm 6 m/s 758 mmHg 82%
    07:00 +3°C° 0,2 mm 6 m/s 759 mmHg 83%
    08:00 +3°C° 0,2 mm 6 m/s 759 mmHg 83%
    09:00 +3°C° 0,2 mm 6 m/s 759 mmHg 83%
    10:00 +4°C° 0,1 mm 6 m/s 759 mmHg 80%
    11:00 +5°C° 0,1 mm 6 m/s 759 mmHg 76%
    12:00 +7°C° 0,1 mm 6 m/s 759 mmHg 72%
    13:00 +6°C° 0,1 mm 7 m/s 759 mmHg 75%
    14:00 +6°C° 0,1 mm 7 m/s 759 mmHg 77%
    15:00 +6°C° 0,1 mm 7 m/s 758 mmHg 79%
    16:00 +5°C° 0,1 mm 7 m/s 759 mmHg 80%
    17:00 +5°C° 0,1 mm 7 m/s 759 mmHg 80%
    18:00 +4°C° 0,1 mm 7 m/s 759 mmHg 80%
    19:00 +4°C° 0,1 mm 7 m/s 759 mmHg 81%
    20:00 +4°C° 0,1 mm 6 m/s 759 mmHg 82%
    21:00 +4°C° 0,1 mm 6 m/s 759 mmHg 83%
    22:00 +4°C° 0,1 mm 6 m/s 759 mmHg 84%
    23:00 +5°C° 0,1 mm 7 m/s 758 mmHg 84%
    Voir plus